Flag for U.S.A. Weather past 2 weeks in Moreno Valley, California, U.S.A.

Now
79 °F

Sunny.


Feels Like: 80 °F
Forecast: 64 / 92 °F
Wind: 9 mph from Northwest

Location: Riverside / March Air Force Base

Current Time: Aug 2, 2015 at 8:13:48 PM

Latest Report: Aug 2, 2015 at 7:58 PM


Visibility: 10 mi

Pressure: 29.82 "Hg

Humidity: 57%

Dew point: 63 °F

Location of Moreno ValleyLocation

Historic Weather in Moreno Valley — Graph

°F

Moreno Valley temperature yesterday

Maximum temperature yesterday: 92 °F (at 2:58 PM)
Minimum temperature yesterday: 65 °F (at 5:58 AM)
Average temperature yesterday: 78 °F

Past Weeks' High & Low Weather Summary

 TemperatureHumidityPressure
High96 °F (Jul 29, 1:58 PM)100% (Jul 18, 6:58 PM)30.13 "Hg (Jul 18, 6:58 PM)
Low61 °F (Jul 28, 5:58 AM)19% (Jul 25, 4:58 PM)29.80 "Hg (Jul 28, 4:58 PM)
Average76 °F67%29.94 "Hg
* Reported Jul 18 6:58 PM — Aug 2 6:58 PM, Moreno Valley, Weather by CustomWeather, © 2015

Note: Actual official high and low records may vary slightly from our data, if they occured in-between our weather recording intervals... More about our weather records

Advertising

Moreno Valley weather history for previous 24 hours

 ConditionsComfort  
Time TempWeatherWind HumidityBarometerVisibility
6:58 PM
Sun, Aug 2
85 °FSunny.13 mph44%29.81 "Hg10 mi
5:58 PM89 °FSunny.13 mph39%29.81 "Hg10 mi
4:58 PM91 °FSunny.14 mph36%29.80 "Hg10 mi
3:58 PM92 °FSunny.12 mph34%29.82 "Hg10 mi
2:58 PM92 °FSunny.12 mph34%29.83 "Hg10 mi
1:58 PM91 °FSunny.10 mph36%29.85 "Hg10 mi
12:58 PM89 °FSunny.12 mph37%29.87 "Hg10 mi
11:58 AM87 °FSunny.10 mph40%29.88 "Hg10 mi
10:58 AM83 °FSunny.6 mph51%29.89 "Hg10 mi
9:58 AM80 °FSunny.3 mph54%29.90 "Hg10 mi
8:58 AM75 °FSunny.No wind65%29.91 "Hg10 mi
7:58 AM71 °FSunny.1 mph77%29.90 "Hg10 mi
6:58 AM66 °FClear.1 mph93%29.89 "Hg10 mi
5:58 AM64 °FClear.3 mph97%29.87 "Hg10 mi
4:58 AM65 °FClear.3 mph93%29.86 "Hg10 mi
3:58 AM64 °FClear.3 mph95%29.87 "Hg10 mi
2:58 AM67 °FClear.No wind84%29.87 "Hg10 mi
1:58 AM68 °FClear.No wind83%29.89 "Hg10 mi
12:58 AM68 °FClear.3 mph79%29.90 "Hg10 mi
11:58 PM
Sat, Aug 1
69 °FClear.5 mph77%29.90 "Hg10 mi
10:58 PM72 °FClear.6 mph72%29.90 "Hg10 mi
9:58 PM74 °FClear.5 mph65%29.91 "Hg10 mi
8:58 PM77 °FClear.6 mph58%29.90 "Hg10 mi
Weather by CustomWeather, © 2015

See weather overviewHow to use our weather pages